EW4719 Weather Reports


time (UTC)temp
C
wind
direction
speed
KPH
gust
KPH
rain 1hr
cm
rain 24hr
cm
rain mn
cm
humidity
%
barometer
mb
20260503021518 7 70 6.4 14.5 0.13 0.33 0.33 95 1013.3
20260503020140 7 71 9.7 17.7 0.15 0.30 0.30 95 1013.3
20260503014526 7 105 4.8 19.3 0.15 0.25 0.28 95 1013.4
20260503013055 8 95 6.4 16.1 0.18 0.23 0.23 94 1013.4
20260503011546 8 66 3.2 19.3 0.15 0.20 0.20 95 1013.5
20260503010113 8 59 4.8 12.9 0.15 0.15 0.15 94 1013.5
20260503004556 8 65 3.2 9.7 0.10 0.13 0.13 94 1013.6
20260503003116 8 72 3.2 12.9 0.05 0.05 0.05 94 1013.7
20260503001546 8 75 1.6 14.5 0.05 0.05 0.05 94 1013.9
20260503000149 8 29 4.8 19.3 0.03 0.03 0.03 94 1013.9
20260502234534 8 96 6.4 22.5 0.03 0.03 0.03 93 1014.0
20260502233044 8 38 3.2 14.5 0.03 0.03 0.03 93 1014.1
20260502231542 8 90 4.8 14.5 0.00 0.00 0.00 93 1014.0
20260502230017 8 64 4.8 12.9 0.00 0.00 0.00 93 1014.0
20260502224547 8 67 4.8 14.5 0.00 0.00 0.00 93 1014.1
20260502223110 8 73 3.2 16.1 0.00 0.00 0.00 93 1014.1
20260502221505 8 55 3.2 14.5 0.00 0.00 0.00 92 1014.1
20260502220134 8 71 4.8 17.7 0.00 0.00 0.00 92 1014.0
20260502214524 8 67 6.4 20.9 0.00 0.03 0.00 92 1014.1
20260502213015 8 74 8.0 19.3 0.00 0.03 0.00 91 1014.1
20260502211552 8 69 9.7 16.1 0.00 0.03 0.00 91 1014.0
20260502210134 8 61 8.0 19.3 0.00 0.03 0.00 91 1014.2
20260502204601 8 61 3.2 16.1 0.00 0.20 0.00 91 1014.2
20260502203123 8 74 3.2 20.9 0.00 0.20 0.00 91 1014.1
20260502201519 8 75 6.4 19.3 0.00 0.20 0.00 90 1014.0
20260502200012 8 30 6.4 16.1 0.00 0.20 0.00 90 1014.1
20260502194543 8 57 9.7 22.5 0.00 0.20 0.00 89 1013.9
20260502193114 9 342 6.4 19.3 0.00 0.20 0.00 89 1013.6
20260502191615 10 58 8.0 22.5 0.00 0.20 0.00 87 1013.4
20260502190134 10 24 8.0 16.1 0.00 0.20 0.00 85 1013.3
20260502184522 12 58 4.8 12.9 0.00 0.20 0.00 80 1013.1
20260502183010 12 336 1.6 6.4 0.00 0.20 0.00 77 1013.0
20260502181542 12 313 3.2 9.7 0.00 0.20 0.00 76 1012.9
20260502180122 12 311 3.2 8.0 0.00 0.20 0.00 75 1012.8
20260502170109 13 269 1.6 6.4 0.00 0.28 0.00 76 1012.8
20260502163119 13 250 1.6 9.7 0.00 0.48 0.00 74 1012.8
20260502161513 13 225 3.2 12.9 0.00 0.48 0.00 72 1012.8
20260502151622 14 260 3.2 12.9 0.00 0.48 0.00 73 1012.9
20260502150124 14 243 4.8 11.3 0.00 0.48 0.00 73 1013.0
20260502123119 15 237 1.6 12.9 0.00 0.51 0.00 74 1013.5
20260502121527 16 186 8.0 20.9 0.00 0.51 0.00 73 1013.3
20260502120147 16 232 8.0 12.9 0.00 0.51 0.00 75 1013.4
20260502114513 15 190 8.0 16.1 0.00 0.51 0.00 73 1013.5
20260502113049 15 240 3.2 11.3 0.00 0.51 0.00 75 1013.5
20260502111544 16 253 6.4 14.5 0.00 0.51 0.00 73 1013.6
20260502110012 15 228 8.0 17.7 0.00 0.51 0.00 74 1013.7
20260502104539 15 257 3.2 12.9 0.00 0.51 0.00 77 1013.8
20260502103108 15 244 4.8 14.5 0.00 0.51 0.00 76 1013.9
20260502101605 14 227 3.2 12.9 0.00 0.51 0.00 80 1014.0
20260502091504 13 311 4.8 14.5 0.00 0.51 0.00 83 1014.1
20260502070129 10 323 3.2 12.9 0.00 0.51 0.00 92 1014.0
20260502064604 10 343 4.8 9.7 0.00 0.51 0.00 93 1014.0
20260502063117 9 311 1.6 6.4 0.00 0.51 0.00 93 1014.0
20260502061503 8 303 1.6 6.4 0.00 0.51 0.00 93 1013.9
20260502060139 8 332 3.2 4.8 0.00 0.51 0.00 92 1013.9
20260502054527 8 319 1.6 6.4 0.00 0.51 0.00 92 1013.9
20260502053107 8 341 1.6 6.4 0.00 0.51 0.00 92 1013.8
20260502051545 8 346 1.6 4.8 0.00 0.51 0.00 91 1013.8
20260502050005 8 315 0.0 0.0 0.00 0.51 0.00 91 1013.7
20260502044543 8 315 0.0 1.6 0.00 0.51 0.00 90 1013.7
20260502043109 8 315 0.0 6.4 0.00 0.51 0.00 90 1013.8
20260502041505 9 309 1.6 4.8 0.00 0.51 0.00 90 1013.7
20260502040002 9 302 1.6 6.4 0.00 0.51 0.00 90 1013.8
20260502034531 9 303 1.6 4.8 0.00 0.51 0.00 91 1013.9
20260502033106 9 317 1.6 6.4 0.00 0.51 0.00 91 1014.1
20260502031555 8 315 3.2 9.7 0.00 0.51 0.00 90 1014.2
20260502030119 9 355 4.8 9.7 0.00 0.51 0.00 89 1014.3
20260502024602 9 335 3.2 8.0 0.00 0.51 0.00 89 1014.4
20260502023121 10 331 1.6 14.5 0.00 0.51 0.00 89 1014.4